Fort Lewis, WA

10:59 PM PST on February 24, 2018 (GMT -0800)
Gray Army Air Field

Weather History for KGRF - December, 2013

Change the Weather History Date:

Monday, December 9, 2013

  Actual Average Record
Temperature  
Mean Temperature 22 °F -  
Max Temperature 30 °F 46 °F 61 °F (2014)
Min Temperature 13 °F 34 °F 13 °F (2013)
Degree Days  
Heating Degree Days 44    
Moisture  
Dew Point 22 °F    
Average Humidity 82    
Maximum Humidity 97    
Minimum Humidity 64    
Precipitation  
Precipitation 0.00 in - - ()
Sea Level Pressure  
Sea Level Pressure 30.53 in    
Wind  
Wind Speed 3 mph (SE)    
Max Wind Speed 7 mph    
Max Gust Speed -    
Visibility 10 miles    
Events Snow    
Averages and records for this station are not official NWS values.
T = Trace of Precipitation, MM = Missing Value Source: NWS Daily Summary

Daily Weather History Graph

Daily Weather History Graph

Search for Another Location

Airport or City:

Trip Planner

Search our weather history database for the weather conditions in past years. The results will help you decide how hot, cold, wet, or windy it might be!

Date:

Astronomy

Dec. 09, 2013 Rise Set
Actual Time 7:44 AM PST 4:20 PM PST
Civil Twilight 7:09 AM PST 4:56 PM PST
Nautical Twilight 6:30 AM PST 5:34 PM PST
Astronomical Twilight 5:53 AM PST 6:11 PM PST
Moon 12:17 PM PST (12/9) No Moon Set
Length of Visible Light 9h 46m
Length of Day
8h 36m
First Quarter, 52% of the Moon is Illuminated
Dec 9
First Quarter
Dec 17
Full
Dec 25
Last Quarter
Jan 1
New
Jan 7
First Quarter

Hourly Weather History & Observations

Time (PST) Temp. Windchill Dew Point Humidity Pressure Visibility Wind Dir Wind Speed Gust Speed Precip Events Conditions
12:58 AM 14.0 °F 3.9 °F 11.1 °F 88% 30.59 in 10.0 mi SE 6.9 mph - N/A   Clear
1:58 AM 14.9 °F - 12.0 °F 88% 30.61 in 10.0 mi SE 2.3 mph - N/A   Clear
2:58 AM 13.8 °F - 10.9 °F 88% 30.60 in 10.0 mi Calm Calm - N/A   Scattered Clouds
3:58 AM 18.5 °F - 14.7 °F 85% 30.58 in 10.0 mi West 2.3 mph - N/A   Overcast
4:58 AM 20.5 °F - 15.6 °F 81% 30.58 in 10.0 mi NNW 2.3 mph - N/A   Overcast
5:58 AM 21.4 °F - 15.6 °F 78% 30.58 in 10.0 mi Calm Calm - N/A   Overcast
6:58 AM 21.9 °F 15.7 °F 17.4 °F 83% 30.58 in 10.0 mi SE 4.6 mph - N/A   Overcast
7:33 AM 21.2 °F 13.6 °F 17.6 °F 86% 30.56 in 10.0 mi SE 5.8 mph - N/A   Overcast
7:58 AM 22.1 °F 14.7 °F 18.3 °F 85% 30.59 in 10.0 mi SE 5.8 mph - N/A   Overcast
8:03 AM 23.0 °F 15.8 °F 19.4 °F 86% 30.56 in 10.0 mi SE 5.8 mph - N/A   Overcast
8:58 AM 23.0 °F 15.8 °F 18.7 °F 84% 30.58 in 10.0 mi SE 5.8 mph - N/A   Overcast
9:22 AM 23.0 °F 15.8 °F 17.6 °F 80% 30.55 in 10.0 mi SE 5.8 mph - N/A   Light Freezing Rain
9:31 AM 24.8 °F 17.9 °F 19.4 °F 80% 30.56 in 10.0 mi SE 5.8 mph - N/A   Overcast
9:56 AM 24.8 °F 17.9 °F 19.4 °F 80% 30.56 in 10.0 mi SE 5.8 mph - N/A   Overcast
9:58 AM 24.4 °F 18.6 °F 18.5 °F 78% 30.59 in 10.0 mi SE 4.6 mph - 0.00 in   Overcast
10:58 AM 26.4 °F - 19.9 °F 77% 30.59 in 10.0 mi SSE 1.2 mph - N/A   Overcast
11:03 AM 26.6 °F - 19.4 °F 74% 30.55 in 10.0 mi Calm Calm - N/A   Overcast
11:58 AM 27.9 °F - 20.8 °F 75% 30.57 in 10.0 mi Calm Calm - N/A   Overcast
12:58 PM 28.9 °F - 19.9 °F 69% 30.58 in 10.0 mi WNW 2.3 mph - N/A   Overcast
1:33 PM 28.4 °F - 19.4 °F 69% 30.54 in 10.0 mi North 1.2 mph - N/A   Overcast
1:38 PM 30.2 °F - 19.4 °F 64% 30.54 in 10.0 mi Calm Calm - N/A   Overcast
1:48 PM 30.2 °F - 21.2 °F 69% 30.54 in 10.0 mi Calm Calm - N/A   Overcast
1:58 PM 29.3 °F - 20.1 °F 69% 30.57 in 10.0 mi SSW 2.3 mph - N/A   Overcast
2:38 PM 30.2 °F 24.3 °F 21.2 °F 69% 30.53 in 10.0 mi SSE 5.8 mph - N/A   Overcast
2:58 PM 29.8 °F 26.3 °F 21.9 °F 72% 30.56 in 10.0 mi SSE 3.5 mph - N/A   Overcast
3:58 PM 29.7 °F - 22.5 °F 75% 30.55 in 10.0 mi ESE 2.3 mph - N/A   Overcast
4:58 PM 29.5 °F - 22.3 °F 75% 30.54 in 10.0 mi East 2.3 mph - N/A   Overcast
5:47 PM 30.2 °F - 23.0 °F 75% 30.51 in 10.0 mi Variable 1.2 mph - N/A Snow Light Snow
5:57 PM 30.2 °F - 23.0 °F 75% 30.53 in 10.0 mi SE 1.2 mph - N/A Snow Light Snow
5:58 PM 29.5 °F - 22.8 °F 76% 30.53 in 10.0 mi ESE 1.2 mph - 0.00 in   Light Freezing Rain
6:04 PM 30.2 °F - 23.0 °F 75% 30.50 in 10.0 mi SSE 2.3 mph - N/A   Overcast
6:06 PM 30.2 °F - 23.0 °F 75% 30.50 in 10.0 mi SE 2.3 mph - N/A   Light Freezing Rain
6:08 PM 30.2 °F - 23.0 °F 75% 30.50 in 10.0 mi SE 2.3 mph - N/A   Overcast
6:14 PM 28.4 °F - 23.0 °F 80% 30.50 in 10.0 mi SSE 2.3 mph - N/A Snow Light Snow
6:30 PM 28.4 °F - 23.0 °F 80% 30.50 in 10.0 mi Variable 1.2 mph - N/A   Overcast
6:58 PM 29.5 °F - 23.9 °F 80% 30.52 in 10.0 mi SSE 2.3 mph - 0.00 in   Overcast
7:01 PM 30.2 °F - 24.8 °F 80% 30.50 in 10.0 mi SSE 2.3 mph - N/A   Overcast
7:03 PM 30.2 °F - 24.8 °F 80% 30.50 in 10.0 mi SSE 2.3 mph - N/A Snow Light Snow
7:15 PM 28.4 °F 24.6 °F 23.0 °F 80% 30.49 in 10.0 mi SSE 3.5 mph - N/A   Overcast
7:20 PM 28.4 °F 24.6 °F 24.8 °F 86% 30.49 in 10.0 mi SSE 3.5 mph - N/A   Overcast
7:25 PM 28.4 °F 24.6 °F 23.0 °F 80% 30.49 in 10.0 mi SE 3.5 mph - N/A Snow Light Snow
7:35 PM 28.4 °F - 24.8 °F 86% 30.49 in 9.0 mi SE 1.2 mph - N/A Snow Light Snow
7:48 PM 28.4 °F - 24.8 °F 86% 30.49 in 10.0 mi SSE 2.3 mph - N/A   Overcast
7:58 PM 29.1 °F - 25.0 °F 85% 30.52 in 10.0 mi SW 2.3 mph - 0.00 in   Overcast
8:08 PM 28.4 °F - 24.8 °F 86% 30.49 in 10.0 mi SSW 2.3 mph - N/A   Overcast
8:38 PM 28.4 °F - 24.8 °F 86% 30.49 in 10.0 mi SE 1.2 mph - N/A Snow Light Snow
8:49 PM 28.4 °F - 24.8 °F 86% 30.49 in 10.0 mi South 2.3 mph - N/A   Overcast
8:58 PM 29.1 °F 25.4 °F 25.9 °F 88% 30.52 in 10.0 mi SSE 3.5 mph - N/A   Overcast
9:35 PM 28.4 °F 24.6 °F 26.6 °F 93% 30.49 in 10.0 mi SSE 3.5 mph - N/A Snow Light Snow
9:39 PM 28.4 °F 24.6 °F 26.6 °F 93% 30.49 in 10.0 mi SSE 3.5 mph - N/A Snow Light Snow
9:54 PM 28.4 °F - 26.6 °F 93% 30.49 in 10.0 mi ESE 2.3 mph - N/A   Overcast
9:58 PM 28.4 °F - 26.8 °F 94% 30.52 in 10.0 mi ESE 2.3 mph - 0.00 in   Overcast
10:03 PM 28.4 °F - 26.6 °F 93% 30.49 in 10.0 mi Variable 1.2 mph - N/A   Overcast
10:55 PM 28.4 °F - 26.6 °F 93% 30.49 in 10.0 mi ESE 2.3 mph - N/A Snow Light Snow
10:58 PM 28.8 °F 25.0 °F 27.0 °F 93% 30.52 in 10.0 mi ESE 3.5 mph - 0.00 in Snow Light Snow
11:02 PM 28.4 °F - 26.6 °F 93% 30.49 in 10.0 mi SE 1.2 mph - N/A   Overcast
11:15 PM 28.4 °F - 26.6 °F 93% 30.49 in 10.0 mi ESE 2.3 mph - N/A Snow Light Snow
11:22 PM 28.4 °F - 26.6 °F 93% 30.49 in 10.0 mi NE 1.2 mph - N/A   Overcast
11:32 PM 28.4 °F - 26.6 °F 93% 30.49 in 10.0 mi Calm Calm - N/A Snow Light Snow
11:58 PM 28.6 °F - 27.9 °F 97% 30.53 in 9.0 mi Calm Calm - 0.00 in Snow Light Snow